This demonstration page uses our WeatherBlox Daily Observations layout. Learn more.

41.55636, -103.73856

Hourly Observations for January 17, 2019

Temp ( °F °C ) Dew Point ( °F °C ) Humidity (%) Winds ( mph kmh ) Pressure ( in mb ) Visibility ( mi km ) Precip ( " mm )
12:53 am 00:53 Clear 23 -5 22 -5.6 96 96 NNW 7 11 30.06 1018 10 16.09344 0 0
1:53 am 01:53 Mostly Cloudy 23 -5 22 -5.6 96 96 WNW 7 11 30.09 1019 10 16.09344 0 0
2:53 am 02:53 Clear 26 -3.3 24 -4.4 92 92 NW 9 15 30.06 1018 10 16.09344 0 0
3:53 am 03:53 Clear 25 -3.9 24 -4.4 96 96 NW 7 11 30.03 1017 10 16.09344 0 0
4:53 am 04:53 Clear 26 -3.3 24 -4.4 92 92 W 5 7 30.03 1017 10 16.09344 0 0
5:53 am 05:53 Clear 22 -5.6 21 -6.1 96 96 NNW 6 9 30.06 1018 10 16.09344 0 0
6:53 am 06:53 Clear 26 -3.3 23 -5 88 88 WNW 3 6 30.06 1018 10 16.09344 0 0
7:53 am 07:53 Sunny 24 -4.4 22 -5.6 91 91 N 6 9 30.06 1018 10 16.09344 0 0
8:53 am 08:53 Sunny 36 2.2 32 0 86 86 Calm 30.03 1017 10 16.09344 0 0
9:53 am 09:53 Mostly Cloudy 40 4.4 34 1.1 79 79 Calm 30.03 1017 10 16.09344 0 0
10:53 am 10:53 Cloudy 44 6.7 35 1.7 71 71 N 3 6 30 1016 10 16.09344 0 0
11:53 am 11:53 Cloudy 47 8.3 36 2.2 66 66 Calm 29.97 1015 10 16.09344 0 0
12:53 pm 12:53 Cloudy 51 10.6 34 1.1 52 52 E 7 11 29.91 1013 10 16.09344 0 0
1:53 pm 13:53 Cloudy 52 11.1 31 -0.6 45 45 ESE 10 17 29.88 1012 10 16.09344 0 0
2:53 pm 14:53 Mostly Sunny 52 11.1 31 -0.6 45 45 SE 12 19 29.85 1011 10 16.09344 0 0
3:53 pm 15:53 Cloudy 49 9.4 29 -1.7 46 46 SE 8 13 29.85 1011 10 16.09344 0 0
4:53 pm 16:53 Cloudy 47 8.3 27 -2.8 46 46 E 7 11 29.85 1011 10 16.09344 0 0
5:53 pm 17:53 Cloudy 44 6.7 27 -2.8 51 51 E 9 15 29.85 1011 10 16.09344 0 0
6:53 pm 18:53 Cloudy 44 6.7 27 -2.8 51 51 E 8 13 29.83 1010 10 16.09344 0 0
7:53 pm 19:53 Cloudy 42 5.6 27 -2.8 55 55 E 3 6 29.85 1011 10 16.09344 0 0
8:53 pm 20:53 Cloudy 39 3.9 27 -2.8 62 62 N 5 7 29.8 1009 10 16.09344 0 0
9:53 pm 21:53 Cloudy 40 4.4 28 -2.2 63 63 E 7 11 29.77 1008 10 16.09344 0 0
10:53 pm 22:53 Cloudy 39 3.9 28 -2.2 65 65 Calm 29.74 1007 10 16.09344 0 0
11:53 pm 23:53 Cloudy 37 2.8 29 -1.7 73 73 E 9 15 29.71 1006 10 16.09344 0 0

Powered by AerisWeather